This is the latest recevied weather packets stored in our database for station/object DO1BDB-12. If no packets are shown the sender has not sent any weather packets the latest 10 day(s).
| Time | Temp. | Humidity | Pressure | Rain* | Wind** | Luminosity | Snow |
|---|---|---|---|---|---|---|---|
| 1778239817 | 17.78° C | 36% | 102.2 hPa | - | - | - | - |
| 1778239751 | 18.33° C | 33% | 102.2 hPa | - | - | - | - |
| 1778239685 | 18.89° C | 34% | 102.2 hPa | - | - | - | - |
| 1778239619 | 17.78° C | 33% | 102.2 hPa | - | - | - | - |
| 1778239553 | 17.78° C | 36% | 102.2 hPa | - | - | - | - |
| 1778239488 | 16.11° C | 36% | 102.2 hPa | - | - | - | - |
| 1778239422 | 15° C | 36% | 102.2 hPa | - | - | - | - |
| 1778239356 | 15° C | 36% | 102.2 hPa | - | - | - | - |
| 1778239290 | 15.56° C | 35% | 102.2 hPa | - | - | - | - |
| 1778239224 | 15° C | 37% | 102.2 hPa | - | - | - | - |
| 1778239158 | 15.56° C | 35% | 102.2 hPa | - | - | - | - |
| 1778239092 | 16.11° C | 34% | 102.2 hPa | - | - | - | - |
| 1778239026 | 16.11° C | 35% | 102.2 hPa | - | - | - | - |
| 1778238961 | 15° C | 35% | 102.2 hPa | - | - | - | - |
| 1778238895 | 16.11° C | 34% | 102.2 hPa | - | - | - | - |
| 1778238830 | 16.11° C | 36% | 102.2 hPa | - | - | - | - |
| 1778238763 | 18.33° C | 35% | 102.2 hPa | - | - | - | - |
| 1778238697 | 17.22° C | 34% | 102.2 hPa | - | - | - | - |
| 1778238632 | 16.67° C | 35% | 102.2 hPa | - | - | - | - |
| 1778238566 | 18.33° C | 33% | 102.2 hPa | - | - | - | - |
| 1778238500 | 18.89° C | 34% | 102.2 hPa | - | - | - | - |
| 1778238434 | 16.11° C | 34% | 102.2 hPa | - | - | - | - |
| 1778238368 | 15.56° C | 34% | 102.2 hPa | - | - | - | - |
| 1778238302 | 15° C | 35% | 102.2 hPa | - | - | - | - |
| 1778238236 | 15.56° C | 33% | 102.2 hPa | - | - | - | - |
* Rain since midnight (hover to see other rain measurements)
** Current wind speed in m/s (hover to see current wind gust speed)